This demonstration page uses our WeatherBlox Daily Observations layout. Learn more.

Left ArrowRight Arrow

39.51506, -84.39828

Hourly Observations for September 30, 2021

Temp ( °F °C ) Dew Point ( °F °C ) Humidity (%) Winds ( mph kmh ) Pressure ( in mb ) Visibility ( mi km ) Precip ( " mm )
12:15 am 00:15 Clear with Mist and Fog 55 12.8 54 12 95 95 N N/A 30.14 1021 5 8 N/A
12:35 am 00:35 Clear 55 12.7 53 11.7 94 94 N N/A 30.14 1021 10 16 N/A
12:55 am 00:55 Clear 53 11.8 53 11.6 99 99 N 3 6 30.14 1021 10 16 N/A
1:15 am 01:15 Clear 53 11.7 52 11.3 97 97 NNE 5 7 30.14 1021 7 11 N/A
1:35 am 01:35 Clear 54 12 54 12 100 100 NNE 3 6 30.15 1021 10 16 N/A
1:55 am 01:55 Clear 55 12.5 53 11.5 94 94 ENE 3 6 30.15 1021 10 16 N/A
2:15 am 02:15 Clear 54 12 54 12 100 100 ENE 3 6 30.15 1021 10 16 N/A
2:35 am 02:35 Clear 54 12 52 11 94 94 ENE 3 6 30.16 1021 10 16 N/A
2:55 am 02:55 Clear 52 11 N/A N/A ENE 5 7 30.17 1022 10 16 N/A
3:15 am 03:15 Clear 52 11 N/A N/A ENE 5 7 30.16 1021 10 16 N/A
3:35 am 03:35 Clear 52 11 N/A N/A N N/A 30.16 1021 10 16 N/A
3:55 am 03:55 Clear 53 11.6 52 11.1 97 97 ENE 3 6 30.17 1022 10 16 N/A
4:15 am 04:15 Clear 52 11 N/A N/A ENE 3 6 30.17 1022 10 16 N/A
4:35 am 04:35 Clear 52 11 N/A N/A N N/A 30.17 1022 10 16 N/A
4:55 am 04:55 Clear 52 11 N/A N/A N N/A 30.18 1022 10 16 N/A
5:15 am 05:15 Clear 52 11 N/A N/A N N/A 30.18 1022 10 16 N/A
5:35 am 05:35 Clear 50 10 N/A N/A N N/A 30.18 1022 10 16 N/A
5:55 am 05:55 Clear 50 10 N/A N/A ENE 3 6 30.18 1022 10 16 N/A
6:15 am 06:15 Clear 48 9 N/A N/A ENE 3 6 30.18 1022 10 16 N/A
6:35 am 06:35 Clear 50 10 N/A N/A ENE 5 7 30.18 1022 10 16 N/A
6:55 am 06:55 Clear 50 10 N/A N/A N N/A 30.18 1022 10 16 N/A
7:15 am 07:15 Clear 52 11 N/A N/A ENE 3 6 30.19 1022 10 16 N/A
7:35 am 07:35 Sunny 50 10 N/A N/A ENE 3 6 30.19 1022 10 16 N/A
7:55 am 07:55 Sunny 50 10 N/A N/A N N/A 30.20 1023 10 16 N/A
8:15 am 08:15 Sunny 52 11 N/A N/A N N/A 30.21 1023 10 16 N/A
8:35 am 08:35 Sunny 54 12 53 11.9 99 99 N N/A 30.20 1023 10 16 N/A
8:55 am 08:55 Sunny 56 13.4 54 12.4 94 94 N N/A 30.20 1023 10 16 N/A
9:15 am 09:15 Sunny 57 14 55 13 94 94 N N/A 30.21 1023 10 16 N/A
9:35 am 09:35 Sunny 59 15.1 55 12.8 86 86 N N/A 30.21 1023 10 16 N/A
9:55 am 09:55 Sunny 60 15.7 56 13.1 85 85 NE 6 9 30.20 1023 10 16 N/A
10:15 am 10:15 Sunny 62 16.6 56 13.3 81 81 NE 5 7 30.20 1023 10 16 N/A
10:35 am 10:35 Sunny 64 17.7 56 13.6 77 77 NE 6 9 30.20 1023 10 16 N/A
10:55 am 10:55 Sunny 66 19 57 13.8 72 72 NNE 5 7 30.20 1023 10 16 N/A
11:15 am 11:15 Sunny 67 19.7 57 13.8 69 69 N 3 6 30.21 1023 10 16 N/A
11:35 am 11:35 Sunny 70 20.9 58 14.2 66 66 N N/A 30.19 1022 10 16 N/A
11:55 am 11:55 Sunny 70 21.3 56 13.4 61 61 N N/A 30.19 1022 10 16 N/A
12:15 pm 12:15 Sunny 72 22.4 57 14 59 59 NW 3 6 30.19 1022 10 16 N/A
12:35 pm 12:35 Sunny 73 22.8 56 13.2 55 55 N N/A 30.19 1022 10 16 N/A
12:55 pm 12:55 Sunny 74 23.3 56 13.5 54 54 N 3 6 30.18 1022 10 16 N/A
1:15 pm 13:15 Sunny 74 23.5 55 12.7 51 51 NW 5 7 30.18 1022 10 16 N/A
1:35 pm 13:35 Sunny 75 24 56 13.1 51 51 NNE 5 7 30.18 1022 10 16 N/A
1:55 pm 13:55 Sunny 76 24.6 55 12.9 48 48 NE 5 7 30.16 1021 10 16 N/A
2:15 pm 14:15 Sunny 76 24.7 55 12.5 47 47 N N/A 30.16 1021 10 16 N/A
2:35 pm 14:35 Sunny 78 25.4 54 12 43 43 SE 5 7 30.16 1021 10 16 N/A
2:55 pm 14:55 Sunny 77 25.2 53 11.5 42 42 NE 3 6 30.15 1021 10 16 N/A
3:15 pm 15:15 Sunny 78 25.5 53 11.6 42 42 NE 6 9 30.15 1021 10 16 N/A
3:35 pm 15:35 Sunny 78 25.6 53 11.4 41 41 NNE 3 6 30.14 1021 10 16 N/A
3:55 pm 15:55 Sunny 78 25.7 54 12.1 43 43 E 7 11 30.15 1021 10 16 N/A
4:15 pm 16:15 Sunny 78 25.4 52 11.1 41 41 E 5 7 30.15 1021 10 16 N/A
4:35 pm 16:35 Sunny 77 25.1 53 11.6 43 43 NNE 5 7 30.15 1021 10 16 N/A
4:55 pm 16:55 Sunny 76 24.5 56 13.1 49 49 ENE 3 6 30.15 1021 10 16 N/A
5:15 pm 17:15 Sunny 76 24.5 56 13.1 49 49 N N/A 30.14 1021 10 16 N/A
5:35 pm 17:35 Sunny 78 25.3 54 12.4 45 45 ENE 5 7 30.14 1021 10 16 N/A
5:55 pm 17:55 Sunny 77 24.9 54 12 45 45 ESE 5 7 30.15 1021 10 16 N/A
6:15 pm 18:15 Sunny 76 24.5 55 12.8 48 48 E 3 6 30.15 1021 10 16 N/A
6:35 pm 18:35 Sunny 73 22.5 61 16.1 67 67 N N/A 30.16 1021 10 16 N/A
6:55 pm 18:55 Sunny 70 21.2 62 16.4 74 74 N N/A 30.16 1021 10 16 N/A
7:15 pm 19:15 Sunny 68 20.2 63 17.1 82 82 N N/A 30.17 1022 10 16 N/A
7:35 pm 19:35 Clear 66 18.7 62 16.8 89 89 N 5 7 30.19 1022 10 16 N/A
7:55 pm 19:55 Clear 63 17.3 61 16.3 94 94 N 3 6 30.19 1022 10 16 N/A
8:15 pm 20:15 Clear 63 17.2 61 16.3 94 94 N N/A 30.19 1022 10 16 N/A
8:35 pm 20:35 Clear 61 16 60 15.7 98 98 N 3 6 30.19 1022 10 16 N/A
8:55 pm 20:55 Clear 61 16 60 15.5 97 97 N 3 6 30.20 1023 10 16 N/A
9:15 pm 21:15 Clear 59 14.8 58 14.4 97 97 N 5 7 30.21 1023 10 16 N/A
9:35 pm 21:35 Clear 58 14.7 58 14.4 98 98 N 6 9 30.22 1023 10 16 N/A
9:55 pm 21:55 Clear 58 14.4 57 13.7 96 96 N 5 7 30.22 1023 10 16 N/A
10:15 pm 22:15 Clear 57 14 57 14 100 100 N N/A 30.22 1023 10 16 N/A
10:35 pm 22:35 Clear 57 13.8 56 13.5 98 98 N N/A 30.23 1024 10 16 N/A
10:55 pm 22:55 Clear 56 13.2 55 13 99 99 N N/A 30.23 1024 10 16 N/A
11:15 pm 23:15 Clear 56 13.6 56 13.4 99 99 N 3 6 30.23 1024 10 16 N/A
11:35 pm 23:35 Clear 55 13 55 13 100 100 N 3 6 30.23 1024 10 16 N/A
11:55 pm 23:55 Clear 54 12.4 54 12.3 99 99 N N/A 30.23 1024 10 16 N/A

Powered by AerisWeather